Regional Weather Roundup
Issued by NWS

Home | Current Version | Previous Version | Text Only | Print | Product List | Glossary Off
Versions: 1 2 3 4 5 6 7 8 9 10 11 12 13 14 15 16 17 18 19 20 21 22 23 24 25 26 27 28 29 30 31 32 33 34 35 36 37 38 39 40 41 42 43 44 45 46 47 48 49 50

000
ASUS43 KLOT 261004
RWRIL

ILLINOIS REGIONAL WEATHER ROUNDUP
NATIONAL WEATHER SERVICE CHICAGO/ROMEOVILLE IL
500 AM CDT FRI MAY 26 2017

NOTE: "FAIR" INDICATES FEW OR NO CLOUDS BELOW 12,000 FEET WITH NO
SIGNIFICANT WEATHER AND/OR OBSTRUCTIONS TO VISIBILITY.

* THESE STATIONS ARE NOT UNDER NWS QUALITY CONTROL. THEY ALSO MAY NOT
  REPORT WEATHER SUCH AS PRECIPITATION OR FOG.

ILZ001-002-007-009-015-016-024-261100-
NORTHWEST ILLINOIS

CITY           SKY/WX    TMP DP  RH WIND       PRES   REMARKS
MOLINE         MOCLDY    58  54  86 NE8       29.77F
STERLING*      PTCLDY    54  54 100 E3        29.82S FOG
$$

ILZ003-004-008-010-011-017-018-261100-
NORTH CENTRAL ILLINOIS

CITY           SKY/WX    TMP DP  RH WIND       PRES   REMARKS
ROCKFORD       CLOUDY    56  53  90 CALM      29.84R
FREEPORT*        N/A     51  51  98 CALM      29.84S FOG
ROCHELLE*      PTCLDY    54  53  97 CALM      29.84R FOG
DE KALB*       CLOUDY    53  52  97 CALM      29.84R FOG
$$

ILZ005-006-012>014-019>023-261100-
NORTHEAST ILLINOIS

CITY           SKY/WX    TMP DP  RH WIND       PRES   REMARKS
CHICAGO-OHARE  CLOUDY    54  50  86 CALM      29.82R
CHICAGO-MIDWAY CLOUDY    55  51  86 CALM      29.83R
AURORA         PTCLDY    54  52  93 CALM      29.84R FOG
LANSING*       CLOUDY    48  48 100 CALM      29.84R FOG
WAUKEGAN       PTCLDY    51  51 100 CALM      29.82S FOG
DUPAGE AIRPORT CLOUDY    54  53  97 CALM      29.83R
WHEELING       PTCLDY    52  51  97 CALM      29.84R
NORTHERLY ISL    N/A     57  50  77 W3          N/A
$$

LMZ740>746-261100-
SOUTHERN LAKE MICHIGAN

STATION/POSITION SKY/WX   TEMP    WIND        PRES    VSBY  WAVE
                          AIR SEA DIR/SP/G                  HT/PER
                          (F)     (DEG/KT/KT) (MB)    (MI)  (FT/S)
SOUTHERN BUOY              47 45  340/  8/  8 1009.7          2/ 5
WILMETTE HARBOR            50 51                N/A           2/ 5
HARRISON CRIB              59     290/  2/  2   N/A
BURNHAM HARBOR             57     250/  4/  6   N/A
CALUMET HARBOR             54     220/  2/  2 1009.6S
BURNS HARBOR               53     180/  3/  4 1010.8R
MICHIGAN CITY              54        CALM       N/A
MICHIGAN CITY 6N           52 51  140/  2/  4   N/A           2/ 5
ST. JOSEPH                 51 54  280/ 10/ 12 1010.6R         3/ 5
$$

ILZ025>027-034>036-040-047-049-050-058-095>099-261100-
WEST-CENTRAL ILLINOIS

CITY           SKY/WX    TMP DP  RH WIND       PRES   REMARKS
QUINCY         CLOUDY    62  52  69 SE8       29.74S
MACOMB*        PTCLDY    56  54  94 E6        29.79S
$$

ILZ028>032-037-038-041>044-048-051>054-059>061-261100-
CENTRAL ILLINOIS

CITY           SKY/WX    TMP DP  RH WIND       PRES   REMARKS
BLOOMINGTON    PTCLDY    56  54  93 SE9       29.85R
DECATUR        PTCLDY    55  54  96 CALM      29.82F
PEORIA         PTCLDY    55  54  96 E3        29.81S
LACON*         CLOUDY    56  54  94 CALM      29.81F
LINCOLN*       CLOUDY    58  57  96 SE5       29.80S
SPRINGFIELD    CLOUDY    57  55  93 SE7       29.79F
TAYLORVILLE    NOT AVBL
$$

ILZ033-039-045-046-055>057-062-063-261100-
EAST-CENTRAL ILLINOIS

CITY           SKY/WX    TMP DP  RH WIND       PRES   REMARKS
CHAMPAIGN      CLOUDY    57  53  86 SE9       29.84R
MATTOON        CLOUDY    56  56 100 S6        29.83R FOG
$$

ILZ079-100>102-261100-
SOUTHWEST ILLINOIS

CITY           SKY/WX    TMP DP  RH WIND       PRES   REMARKS
BELLEVILLE     PTCLDY    58  54  88 SE7       29.80F
CAHOKIA*       PTCLDY    59  54  83 S5        29.78S
SPARTA*        CLEAR     60  55  81 SE7       29.81F
$$

ILZ064>066-069>071-074>076-080>082-084>086-088>090-092>094-261100-
SOUTH-CENTRAL ILLINOIS

CITY           SKY/WX    TMP DP  RH WIND       PRES   REMARKS
CARBONDALE     CLEAR     56  55  97 E6        29.83R
CAIRO*         CLEAR     63  56  79 S6        29.85R
EFFINGHAM*     CLEAR     54  54 100 E3        29.86R
MARION         PTCLDY    59  57  94 S5        29.85R
MT. VERNON       N/A     52  52 100 CALM      29.84R
CENTRALIA*     CLEAR     60  55  85 S8        29.82S
SALEM*         CLEAR     60  54  81 SE3       29.83S
$$

ILZ067-068-072-073-078-083-087-091-261100-
SOUTHEAST ILLINOIS

CITY           SKY/WX    TMP DP  RH WIND       PRES   REMARKS
LAWRENCEVILLE  CLOUDY    57  56  96 CALM      29.86R
HARRISBURG*    CLEAR     54  52  95 CALM      29.86R
ROBINSON*      PTCLDY    54  54 100 CALM      29.87R FOG
CARMI*         PTCLDY    55  53  92 S6        29.86R
$$

ABBREVIATIONS USED IN REMARKS
   TC - TEMPERATURE IN CELSIUS
  WCI - WIND CHILL INDEX
   HX - HEAT INDEX
  VSB - VISIBILITY
$$




USA.gov is the U.S. government's official web portal to all federal, state and local government web resources and services.